ǯ����,��ʬ��,�Ǿ��������١�,ʿ���������١�,�����������١�,�Ǿ���®(m/s),ʿ����®(m/s),������®(m/s),����(���,���١ʡ��,����(hPa),�߱���(mm),�߱�����(�á�,�߱�����(mm/h),�ߤҤ礦��(hit/���),�ߤҤ礦����(�á�,�ߤҤ礦����(hit/���h),�ҡ�������(���,�ҡ������Ű���V),�Ÿ��Ű���V),�����Ű���V)
2007/07/01,00:00:01,26,202,22,0.0,1.7,3.8,22.1,86.9,1004.6,0.00,0,0.0,0.0,0,0.0,25.4,0.0,12.0,3.470
2007/07/01,00:10:01,138,204,18,0.1,1.8,3.5,22.2,87.1,1004.6,0.00,0,0.0,0.0,0,0.0,25.1,0.0,12.1,3.472
2007/07/01,00:20:01,25,201,284,0.0,2.0,4.4,22.2,87.4,1004.6,0.00,0,0.0,0.0,0,0.0,24.9,0.0,12.0,3.473
2007/07/01,00:30:01,47,204,19,0.1,2.1,4.5,22.1,87.6,1004.5,0.00,0,0.0,0.0,0,0.0,25.1,0.0,11.9,3.469
2007/07/01,00:40:01,109,201,318,0.1,2.0,4.1,21.9,87.7,1004.5,0.00,0,0.0,0.0,0,0.0,25.4,0.0,12.0,3.469
2007/07/01,00:50:01,79,201,289,0.1,2.1,5.2,21.8,87.7,1004.5,0.00,0,0.0,0.0,0,0.0,25.1,0.0,12.0,3.472
2007/07/01,01:00:01,34,196,14,0.1,1.8,3.8,21.5,87.5,1004.4,0.00,0,0.0,0.0,0,0.0,24.9,0.0,12.0,3.469
2007/07/01,01:10:01,128,203,306,0.1,1.7,4.0,21.4,87.2,1004.4,0.00,0,0.0,0.0,0,0.0,25.1,0.0,12.0,3.470
2007/07/01,01:20:01,28,201,299,0.1,1.7,4.1,21.3,87.0,1004.2,0.00,0,0.0,0.0,0,0.0,24.8,0.0,11.9,3.469
2007/07/01,01:30:01,36,203,13,0.1,1.9,4.3,21.2,86.5,1004.1,0.00,0,0.0,0.0,0,0.0,25.1,0.0,12.0,3.470
2007/07/01,01:40:01,58,204,309,0.1,1.9,4.0,21.1,85.9,1004.2,0.00,0,0.0,0.0,0,0.0,24.9,0.0,12.1,3.469
2007/07/01,01:50:01,115,213,293,0.1,1.9,4.4,21.2,84.8,1004.2,0.00,0,0.0,0.0,0,0.0,24.9,0.0,12.0,3.469
2007/07/01,02:00:01,144,206,281,0.4,2.0,4.0,21.2,84.4,1004.1,0.00,0,0.0,0.0,0,0.0,25.1,0.0,12.0,3.468
2007/07/01,02:10:01,101,208,282,0.1,1.8,4.2,21.4,84.6,1004.1,0.00,0,0.0,0.0,0,0.0,24.8,0.0,12.0,3.472
2007/07/01,02:20:01,117,209,294,0.0,1.6,3.4,21.4,85.2,1004.1,0.00,0,0.0,0.0,0,0.0,24.9,0.0,11.9,3.469
2007/07/01,02:30:01,133,213,306,0.1,1.5,3.6,21.4,85.4,1004.0,0.00,0,0.0,0.0,0,0.0,24.8,0.0,12.0,3.472
2007/07/01,02:40:01,80,210,291,0.2,1.5,3.1,21.4,85.5,1004.1,0.00,0,0.0,0.0,0,0.0,24.8,0.0,12.0,3.473
2007/07/01,02:50:01,148,209,279,0.2,1.6,3.8,21.4,85.9,1004.0,0.00,0,0.0,0.0,0,0.0,24.8,0.0,12.0,3.472
2007/07/01,03:00:01,79,216,297,0.2,1.8,3.6,21.6,85.7,1004.1,0.00,0,0.0,0.0,0,0.0,24.8,0.0,12.1,3.470
2007/07/01,03:10:01,136,219,282,0.0,1.8,3.9,21.5,85.6,1004.0,0.00,0,0.0,0.0,0,0.0,24.9,0.0,12.0,3.472
2007/07/01,03:20:01,136,220,35,0.1,1.7,3.9,21.5,85.6,1004.0,0.00,0,0.0,0.0,0,0.0,24.8,0.0,12.0,3.470
2007/07/01,03:30:01,78,221,34,0.2,1.6,4.2,21.6,86.0,1004.0,0.00,0,0.0,0.0,0,0.0,25.1,0.0,12.0,3.470
2007/07/01,03:40:01,41,220,28,0.0,1.6,3.7,21.4,86.3,1004.0,0.00,0,0.0,0.0,0,0.0,24.9,0.0,11.9,3.472
2007/07/01,03:50:01,126,216,286,0.1,1.7,4.1,21.2,86.3,1004.0,0.00,0,0.0,0.0,0,0.0,24.8,0.0,12.0,3.472
2007/07/01,04:00:01,133,209,25,0.0,1.6,3.6,21.1,85.8,1003.9,0.00,0,0.0,0.0,0,0.0,24.6,0.0,12.0,3.470
2007/07/01,04:10:01,49,209,25,0.1,1.6,4.4,21.1,85.5,1004.0,0.00,0,0.0,0.0,0,0.0,24.6,0.0,12.0,3.470
2007/07/01,04:20:01,39,208,25,0.0,1.8,3.8,21.2,85.7,1004.0,0.00,0,0.0,0.0,0,0.0,24.6,0.0,12.0,3.472
2007/07/01,04:30:01,66,215,317,0.1,1.7,3.5,21.3,86.0,1004.0,0.00,0,0.0,0.0,0,0.0,24.6,0.0,12.0,3.473
2007/07/01,04:40:01,146,217,290,0.2,1.8,4.5,21.4,86.3,1004.0,0.00,0,0.0,0.0,0,0.0,24.8,0.0,12.0,3.470
2007/07/01,04:50:01,36,212,359,0.1,1.9,4.1,21.4,87.0,1003.9,0.00,0,0.0,0.0,0,0.0,24.8,0.0,12.0,3.472
2007/07/01,05:00:01,120,213,292,0.2,1.8,4.1,21.4,87.3,1004.0,0.00,0,0.0,0.0,0,0.0,24.8,0.0,12.0,3.470
2007/07/01,05:10:01,38,210,291,0.1,1.8,3.7,21.3,87.7,1004.1,0.00,0,0.0,0.0,0,0.0,24.8,0.0,12.0,3.472
2007/07/01,05:20:01,81,211,317,0.0,1.7,4.4,21.4,88.1,1004.2,0.00,0,0.0,0.0,0,0.0,24.6,0.0,12.0,3.470
2007/07/01,05:30:01,148,212,278,0.1,1.8,3.7,21.3,88.1,1004.1,0.00,0,0.0,0.0,0,0.0,24.8,0.0,12.0,3.470
2007/07/01,05:40:01,145,209,292,0.3,1.6,3.6,21.0,88.1,1004.0,0.00,0,0.0,0.0,0,0.0,24.6,0.0,12.0,3.470
2007/07/01,05:50:01,37,207,6,0.1,1.7,4.0,20.9,88.2,1003.9,0.00,0,0.0,0.0,0,0.0,24.9,0.0,12.0,3.470
2007/07/01,06:00:01,71,207,294,0.2,1.8,4.4,20.6,87.7,1004.0,0.00,0,0.0,0.0,0,0.0,25.3,0.0,12.0,3.470
2007/07/01,06:10:01,95,210,6,0.1,1.9,4.8,20.5,86.7,1004.1,0.00,0,0.0,0.0,0,0.0,26.1,0.0,12.1,3.470
2007/07/01,06:20:01,124,217,4,0.1,1.7,4.4,20.7,85.9,1004.2,0.00,0,0.0,0.0,0,0.0,26.3,0.0,12.1,3.469
2007/07/01,06:30:01,40,220,25,0.2,2.1,5.0,20.9,85.2,1004.2,0.00,0,0.0,0.0,0,0.0,26.8,0.0,12.0,3.469
2007/07/01,06:40:01,153,223,297,0.3,2.1,4.8,21.0,84.8,1004.3,0.00,0,0.0,0.0,0,0.0,27.3,0.0,12.0,3.468
2007/07/01,06:50:01,127,224,28,0.0,2.1,4.9,21.1,84.4,1004.4,0.00,0,0.0,0.0,0,0.0,27.3,0.0,12.0,3.469
2007/07/01,07:00:01,130,225,288,0.3,2.1,5.3,21.3,84.2,1004.4,0.00,0,0.0,0.0,0,0.0,27.9,0.0,12.0,3.470
2007/07/01,07:10:01,65,223,308,0.2,2.3,5.3,21.3,83.9,1004.4,0.00,0,0.0,0.0,0,0.0,28.3,0.0,12.0,3.469
2007/07/01,07:20:01,47,227,296,0.1,2.4,6.3,21.5,83.2,1004.5,0.00,0,0.0,0.0,0,0.0,28.6,0.0,12.0,3.468
2007/07/01,07:30:01,127,228,291,0.2,2.9,7.4,21.6,82.9,1004.6,0.00,0,0.0,0.0,0,0.0,28.6,0.0,12.0,3.469
2007/07/01,07:40:01,141,230,308,0.2,2.9,6.6,21.8,82.9,1004.6,0.00,0,0.0,0.0,0,0.0,29.0,0.0,12.1,3.469
2007/07/01,07:50:01,107,235,312,0.3,3.4,7.3,22.0,83.2,1004.8,0.00,0,0.0,0.0,0,0.0,29.1,0.0,12.1,3.469
2007/07/01,08:00:01,172,236,15,0.6,3.6,7.6,22.2,83.1,1004.8,0.00,0,0.0,0.0,0,0.0,29.3,0.0,12.1,3.469
2007/07/01,08:10:01,182,239,296,0.8,3.7,7.6,22.2,82.3,1004.9,0.00,0,0.0,0.0,0,0.0,29.5,0.0,12.1,3.469
2007/07/01,08:20:01,137,238,32,0.2,3.4,7.2,22.5,82.6,1004.9,0.00,0,0.0,0.0,0,0.0,30.0,0.0,12.1,3.468
2007/07/01,08:30:01,167,238,352,0.4,3.5,7.6,22.6,81.5,1004.8,0.00,0,0.0,0.0,0,0.0,30.1,0.0,12.0,3.469
2007/07/01,08:40:01,74,235,357,0.3,3.1,8.3,22.9,80.1,1004.9,0.00,0,0.0,0.0,0,0.0,30.5,0.0,12.0,3.469
2007/07/01,08:50:01,145,235,44,0.3,3.3,7.1,23.1,80.5,1004.9,0.00,0,0.0,0.0,0,0.0,30.6,0.0,11.9,3.468
2007/07/01,09:00:01,152,240,359,0.5,3.0,6.5,23.2,79.5,1005.0,0.00,0,0.0,0.0,0,0.0,31.1,0.0,12.0,3.468
2007/07/01,09:10:01,112,242,313,0.3,2.9,5.8,23.4,80.3,1005.0,0.00,0,0.0,0.0,0,0.0,31.1,0.0,12.0,3.468
2007/07/01,09:20:01,180,244,32,0.0,2.9,5.9,23.4,79.6,1005.0,0.00,0,0.0,0.0,0,0.0,31.5,0.0,12.0,3.468
2007/07/01,09:30:01,59,239,334,0.1,3.1,6.1,23.8,79.2,1005.0,0.00,0,0.0,0.0,0,0.0,31.1,0.0,12.0,3.468
2007/07/01,09:40:01,91,247,60,0.1,2.6,7.2,24.1,77.7,1005.0,0.00,0,0.0,0.0,0,0.0,32.3,0.0,12.0,3.469
2007/07/01,09:50:01,73,239,56,0.0,2.6,6.6,24.4,77.4,1005.0,0.00,0,0.0,0.0,0,0.0,32.5,0.0,12.1,3.467
2007/07/01,10:00:01,78,242,59,0.1,2.5,7.0,24.6,75.8,1005.0,0.00,0,0.0,0.0,0,0.0,32.8,0.0,12.1,3.467
2007/07/01,10:10:01,93,257,62,0.0,2.3,6.5,24.6,76.2,1005.0,0.00,0,0.0,0.0,0,0.0,33.5,0.0,12.1,3.468
2007/07/01,10:20:01,91,269,78,0.1,2.7,7.2,24.6,77.2,1005.1,0.00,0,0.0,0.0,0,0.0,32.6,0.0,12.1,3.467
2007/07/01,10:30:01,118,267,61,0.0,2.7,7.1,24.8,76.3,1005.1,0.00,0,0.0,0.0,0,0.0,33.0,0.0,12.1,3.467
2007/07/01,10:40:01,105,270,80,0.0,2.9,7.2,24.9,76.7,1005.1,0.00,0,0.0,0.0,0,0.0,32.8,0.0,12.0,3.468
2007/07/01,10:50:01,96,271,80,0.0,2.5,6.9,24.7,76.8,1005.1,0.00,0,0.0,0.0,0,0.0,33.1,0.0,12.1,3.467
2007/07/01,11:00:01,124,255,27,0.1,2.6,7.8,25.3,74.7,1005.0,0.00,0,0.0,0.0,0,0.0,33.1,0.0,12.1,3.467
2007/07/01,11:10:01,63,243,54,0.0,2.4,7.3,25.3,74.6,1005.0,0.00,0,0.0,0.0,0,0.0,33.5,0.0,12.1,3.467
2007/07/01,11:20:01,97,245,65,0.0,2.4,6.4,25.4,74.3,1005.0,0.00,0,0.0,0.0,0,0.0,34.0,0.0,12.0,3.465
2007/07/01,11:30:01,101,265,81,0.0,2.1,6.4,25.9,73.0,1005.0,0.00,0,0.0,0.0,0,0.0,34.3,0.0,12.0,3.467
2007/07/01,11:40:01,111,248,50,0.1,2.5,6.3,25.8,73.5,1005.0,0.00,0,0.0,0.0,0,0.0,34.0,0.0,12.0,3.467
2007/07/01,11:50:01,68,247,62,0.1,2.1,6.3,26.3,72.1,1005.0,0.00,0,0.0,0.0,0,0.0,34.7,0.0,12.0,3.465
2007/07/01,12:00:01,87,267,66,0.0,2.4,6.4,25.9,72.5,1005.0,0.00,0,0.0,0.0,0,0.0,34.3,0.0,12.0,3.467
2007/07/01,12:10:01,102,269,83,0.1,2.7,8.0,25.7,73.2,1005.1,0.00,0,0.0,0.0,0,0.0,33.8,0.0,12.0,3.467
2007/07/01,12:20:01,95,270,77,0.1,3.2,8.0,25.6,73.9,1005.0,0.00,20,0.0,0.0,0,0.0,33.1,0.0,11.9,3.467
2007/07/01,12:30:01,191,267,4,0.3,3.5,8.5,25.4,75.0,1004.9,0.00,0,0.0,0.0,0,0.0,32.8,0.0,12.1,3.467
2007/07/01,12:40:01,100,272,82,0.0,3.0,8.8,26.1,73.5,1004.8,0.00,0,0.0,0.0,0,0.0,33.1,0.0,12.1,3.467
2007/07/01,12:50:01,133,271,79,0.1,3.5,7.9,26.0,73.3,1004.7,0.00,0,0.0,0.0,0,0.0,32.8,0.0,12.1,3.468
2007/07/01,13:00:01,141,271,46,0.1,3.6,7.6,26.1,73.0,1004.7,0.00,0,0.0,0.0,0,0.0,32.8,0.0,12.1,3.468
2007/07/01,13:10:01,103,268,84,0.0,2.6,7.9,26.7,71.3,1004.6,0.00,0,0.0,0.0,0,0.0,33.8,0.0,12.0,3.465
2007/07/01,13:20:01,178,271,57,0.1,3.5,8.1,26.1,73.9,1004.5,0.00,0,0.0,0.0,0,0.0,33.1,0.0,12.1,3.467
2007/07/01,13:30:01,125,268,41,0.1,3.7,8.1,26.0,72.7,1004.5,0.00,0,0.0,0.0,0,0.0,32.8,0.0,12.0,3.468
2007/07/01,13:40:01,133,269,39,0.1,3.4,7.9,26.6,71.2,1004.4,0.00,0,0.0,0.0,0,0.0,33.0,0.0,12.1,3.467
2007/07/01,13:50:01,156,269,357,0.0,3.8,7.9,26.3,72.1,1004.4,0.00,0,0.0,0.0,0,0.0,32.5,0.0,12.0,3.467
2007/07/01,14:00:01,183,265,39,0.0,3.8,8.0,26.4,72.5,1004.4,0.00,0,0.0,0.0,0,0.0,33.0,0.0,12.0,3.468
2007/07/01,14:10:01,177,267,63,0.1,3.5,7.3,26.5,71.7,1004.3,0.00,0,0.0,0.0,0,0.0,33.3,0.0,12.1,3.468
2007/07/01,14:20:01,132,268,72,0.1,3.2,7.4,26.7,72.6,1004.2,0.00,0,0.0,0.0,0,0.0,33.1,0.0,12.1,3.467
2007/07/01,14:30:01,146,269,63,0.1,3.3,6.9,26.6,71.9,1004.2,0.00,0,0.0,0.0,0,0.0,33.0,0.0,12.1,3.467
2007/07/01,14:40:01,112,269,78,0.1,3.4,7.3,26.9,69.4,1004.2,0.00,0,0.0,0.0,0,0.0,33.0,0.0,12.1,3.467
2007/07/01,14:50:01,97,269,74,0.2,3.5,8.2,27.0,70.9,1004.3,0.00,0,0.0,0.0,0,0.0,33.1,0.0,12.0,3.468
2007/07/01,15:00:01,106,267,66,0.1,2.7,7.1,27.5,70.3,1004.2,0.00,0,0.0,0.0,0,0.0,33.7,0.0,12.1,3.467
2007/07/01,15:10:01,137,270,63,0.1,2.7,6.3,27.6,70.8,1004.2,0.00,0,0.0,0.0,0,0.0,33.7,0.0,12.1,3.468
2007/07/01,15:20:01,121,271,82,0.2,3.2,6.9,26.7,72.8,1004.3,0.00,0,0.0,0.0,0,0.0,33.1,0.0,12.0,3.465
2007/07/01,15:30:01,203,269,61,0.2,3.4,7.3,26.6,73.3,1004.2,0.00,0,0.0,0.0,0,0.0,32.8,0.0,12.0,3.467
2007/07/01,15:40:01,98,268,50,0.1,3.2,6.6,26.6,74.2,1004.2,0.00,0,0.0,0.0,0,0.0,32.5,0.0,12.0,3.467
2007/07/01,15:50:01,196,267,79,0.2,3.6,7.9,26.3,74.6,1004.1,0.00,0,0.0,0.0,0,0.0,32.3,0.0,12.0,3.468
2007/07/01,16:00:01,126,268,44,0.2,3.4,7.3,26.4,74.3,1004.1,0.00,0,0.0,0.0,0,0.0,32.1,0.0,12.0,3.468
2007/07/01,16:10:01,154,267,44,0.2,3.3,6.9,26.4,74.3,1004.0,0.00,0,0.0,0.0,0,0.0,32.0,0.0,12.0,3.468
2007/07/01,16:20:01,109,269,76,0.1,3.5,7.5,26.4,74.1,1003.9,0.00,0,0.0,0.0,0,0.0,31.8,0.0,12.0,3.467
2007/07/01,16:30:01,147,264,30,0.1,3.3,7.0,26.3,75.1,1003.8,0.00,0,0.0,0.0,0,0.0,31.6,0.0,11.9,3.467
2007/07/01,16:40:01,94,267,62,0.0,3.2,7.2,26.5,74.5,1003.8,0.00,0,0.0,0.0,0,0.0,31.8,0.0,12.0,3.468
2007/07/01,16:50:01,126,267,42,0.1,3.2,7.0,26.7,73.2,1003.8,0.00,0,0.0,0.0,0,0.0,31.8,0.0,11.9,3.468
2007/07/01,17:00:01,119,267,84,0.0,2.7,6.9,27.2,72.8,1003.8,0.00,0,0.0,0.0,0,0.0,31.6,0.0,12.0,3.468
2007/07/01,17:10:01,74,251,70,0.0,1.8,5.2,27.4,72.1,1003.9,0.00,0,0.0,0.0,0,0.0,32.5,0.0,11.9,3.467
2007/07/01,17:20:01,76,251,67,0.0,1.9,5.7,27.2,72.7,1003.8,0.00,0,0.0,0.0,0,0.0,32.3,0.0,12.1,3.468
2007/07/01,17:30:01,79,256,70,0.0,1.6,5.4,27.2,72.7,1003.9,0.00,0,0.0,0.0,0,0.0,32.5,0.0,12.0,3.467
2007/07/01,17:40:01,118,268,85,0.1,2.7,7.2,26.3,75.5,1003.9,0.00,0,0.0,0.0,0,0.0,31.3,0.0,12.0,3.468
2007/07/01,17:50:01,109,268,73,0.1,3.0,7.2,26.0,76.9,1003.9,0.00,0,0.0,0.0,0,0.0,31.0,0.0,12.0,3.468
2007/07/01,18:00:01,139,266,10,0.2,3.1,6.9,25.8,78.4,1003.9,0.00,0,0.0,0.0,0,0.0,30.1,0.0,12.0,3.467
2007/07/01,18:10:01,115,269,72,0.1,2.7,5.9,25.9,78.7,1003.9,0.00,0,0.0,0.0,0,0.0,30.0,0.0,12.0,3.469
2007/07/01,18:20:01,85,262,82,0.0,1.7,6.2,26.2,77.1,1003.9,0.00,0,0.0,0.0,0,0.0,30.5,0.0,12.0,3.468
2007/07/01,18:30:01,71,250,60,0.0,1.6,4.7,26.1,77.0,1004.0,0.00,0,0.0,0.0,0,0.0,30.1,0.0,12.0,3.468
2007/07/01,18:40:01,72,245,63,0.0,1.3,4.3,26.2,76.8,1004.1,0.00,0,0.0,0.0,0,0.0,30.5,0.0,12.0,3.469
2007/07/01,18:50:01,79,239,54,0.0,1.5,3.9,25.8,78.5,1004.1,0.00,0,0.0,0.0,0,0.0,29.6,0.0,12.1,3.469
2007/07/01,19:00:01,65,238,56,0.0,1.7,4.1,25.6,79.0,1004.1,0.00,0,0.0,0.0,0,0.0,29.1,0.0,12.1,3.469
2007/07/01,19:10:01,73,238,316,0.1,2.0,5.8,25.3,79.9,1004.3,0.00,0,0.0,0.0,0,0.0,28.5,0.0,12.0,3.469
2007/07/01,19:20:01,60,235,54,0.0,1.7,4.3,25.2,80.9,1004.3,0.00,0,0.0,0.0,0,0.0,27.9,0.0,12.1,3.469
2007/07/01,19:30:01,59,231,43,0.1,1.5,3.7,25.0,82.0,1004.4,0.00,0,0.0,0.0,0,0.0,27.4,0.0,12.0,3.469
2007/07/01,19:40:01,52,219,36,0.1,1.2,3.0,24.8,82.8,1004.4,0.00,0,0.0,0.0,0,0.0,26.9,0.0,12.0,3.469
2007/07/01,19:50:01,37,216,25,0.0,1.1,3.0,24.6,83.9,1004.4,0.00,0,0.0,0.0,0,0.0,26.8,0.0,12.0,3.469
2007/07/01,20:00:01,43,215,34,0.1,1.2,3.5,24.3,84.4,1004.4,0.00,0,0.0,0.0,0,0.0,26.6,0.0,12.0,3.472
2007/07/01,20:10:01,18,200,14,0.0,0.7,2.1,23.9,85.6,1004.4,0.00,0,0.0,0.0,0,0.0,26.4,0.0,12.0,3.469
2007/07/01,20:20:01,42,209,28,0.0,0.8,2.1,23.8,85.6,1004.5,0.00,0,0.0,0.0,0,0.0,26.4,0.0,12.1,3.469
2007/07/01,20:30:01,352,164,247,0.0,0.7,1.9,23.5,86.3,1004.4,0.00,0,0.0,0.0,0,0.0,25.9,0.0,12.0,3.469
2007/07/01,20:40:01,47,175,280,0.1,1.0,2.0,23.2,87.0,1004.4,0.00,0,0.0,0.0,0,0.0,25.8,0.0,12.0,3.470
2007/07/01,20:50:01,356,176,340,0.0,0.8,1.3,23.1,87.6,1004.4,0.00,0,0.0,0.0,0,0.0,25.9,0.0,12.0,3.470
2007/07/01,21:00:01,70,188,294,0.0,0.8,1.4,22.9,87.5,1004.5,0.00,0,0.0,0.0,0,0.0,25.9,0.0,12.0,3.469
2007/07/01,21:10:01,136,183,278,0.0,1.0,1.8,22.3,87.0,1004.6,0.00,0,0.0,0.0,0,0.0,25.6,0.0,12.1,3.469
2007/07/01,21:20:01,122,168,244,0.2,1.0,1.8,22.1,87.1,1004.7,0.00,0,0.0,0.0,0,0.0,25.3,0.0,12.1,3.470
2007/07/01,21:30:01,144,176,228,0.4,1.2,1.9,21.9,86.7,1004.7,0.00,0,0.0,0.0,0,0.0,25.3,0.0,11.9,3.470
2007/07/01,21:40:01,55,173,240,0.1,0.9,1.3,22.0,86.9,1004.7,0.00,0,0.0,0.0,0,0.0,25.1,0.0,12.0,3.470
2007/07/01,21:50:01,147,173,214,0.6,1.0,2.2,21.9,87.1,1004.9,0.00,0,0.0,0.0,0,0.0,25.1,0.0,12.1,3.470
2007/07/01,22:00:01,130,169,212,0.3,1.1,1.8,21.6,86.9,1005.0,0.00,0,0.0,0.0,0,0.0,25.1,0.0,12.0,3.469
2007/07/01,22:10:01,131,183,248,0.3,1.1,2.6,21.6,86.4,1005.0,0.00,0,0.0,0.0,0,0.0,24.9,0.0,12.0,3.470
2007/07/01,22:20:01,17,196,13,0.0,1.1,2.7,21.8,84.9,1005.2,0.00,0,0.0,0.0,0,0.0,25.4,0.0,12.0,3.469
2007/07/01,22:30:01,37,187,359,0.1,1.2,2.8,21.9,84.8,1005.2,0.00,0,0.0,0.0,0,0.0,25.1,0.0,11.9,3.470
2007/07/01,22:40:01,29,193,315,0.0,1.3,3.6,22.3,85.1,1005.1,0.00,0,0.0,0.0,0,0.0,25.8,0.0,12.0,3.473
2007/07/01,22:50:01,48,204,300,0.1,1.6,3.4,22.5,85.4,1005.1,0.00,0,0.0,0.0,0,0.0,25.4,0.0,12.1,3.470
2007/07/01,23:00:01,70,202,346,0.0,1.8,4.4,22.5,85.7,1005.1,0.00,0,0.0,0.0,0,0.0,25.8,0.0,12.1,3.470
2007/07/01,23:10:01,133,206,16,0.1,1.7,3.7,22.5,86.0,1005.1,0.00,0,0.0,0.0,0,0.0,25.8,0.0,12.1,3.469
2007/07/01,23:20:01,36,208,18,0.0,1.4,3.5,22.4,86.1,1005.0,0.00,0,0.0,0.0,0,0.0,25.4,0.0,12.1,3.469
2007/07/01,23:30:01,122,217,314,0.1,1.4,3.3,22.5,86.3,1005.0,0.00,0,0.0,0.0,0,0.0,25.6,0.0,12.1,3.470
2007/07/01,23:40:01,30,208,18,0.0,1.4,3.2,22.4,86.6,1004.9,0.00,0,0.0,0.0,0,0.0,25.6,0.0,12.0,3.469
2007/07/01,23:50:01,37,204,22,0.0,1.3,3.2,22.3,86.8,1004.8,0.00,0,0.0,0.0,0,0.0,25.4,0.0,12.0,3.470
2007/07/02,00:00:01,48,205,24,0.0,1.1,3.0,22.2,86.8,1004.7,0.00,0,0.0,0.0,0,0.0,25.3,0.0,11.9,3.470
2007/07/02,00:10:01,36,211,23,0.0,1.1,2.7,22.1,86.8,1004.7,0.00,0,0.0,0.0,0,0.0,25.3,0.0,12.0,3.469
2007/07/02,00:20:01,50,212,25,0.0,1.1,2.9,22.0,86.9,1004.6,0.00,0,0.0,0.0,0,0.0,25.3,0.0,12.0,3.470
2007/07/02,00:30:01,57,211,30,0.0,1.2,3.0,22.1,87.5,1004.6,0.00,0,0.0,0.0,0,0.0,25.3,0.0,12.1,3.470
2007/07/02,00:40:01,36,216,25,0.0,1.3,3.4,21.8,87.5,1004.6,0.00,0,0.0,0.0,0,0.0,25.4,0.0,12.0,3.470
2007/07/02,00:50:01,76,225,357,0.1,1.6,3.8,21.9,87.4,1004.7,0.00,0,0.0,0.0,0,0.0,25.4,0.0,12.0,3.470
2007/07/02,01:00:01,99,221,34,0.0,1.7,4.1,21.9,87.5,1004.6,0.00,0,0.0,0.0,0,0.0,25.4,0.0,12.0,3.472
2007/07/02,01:10:01,76,223,28,0.0,1.8,4.7,22.2,87.8,1004.5,0.00,0,0.0,0.0,0,0.0,25.6,0.0,12.0,3.470
2007/07/02,01:20:01,44,224,25,0.1,1.9,4.9,22.0,87.6,1004.3,0.00,0,0.0,0.0,0,0.0,25.6,0.0,12.1,3.470
2007/07/02,01:30:01,107,219,25,0.1,1.9,4.4,21.8,87.5,1004.1,0.00,0,0.0,0.0,0,0.0,25.4,0.0,12.1,3.470
2007/07/02,01:40:01,117,220,30,0.1,2.0,5.0,21.7,87.1,1004.1,0.00,0,0.0,0.0,0,0.0,25.4,0.0,12.0,3.469
2007/07/02,01:50:01,66,216,20,0.2,2.1,5.5,21.7,87.1,1004.0,0.00,0,0.0,0.0,0,0.0,25.4,0.0,12.1,3.469
2007/07/02,02:00:01,46,225,39,0.0,2.1,5.2,21.8,87.1,1003.8,0.00,0,0.0,0.0,0,0.0,25.4,0.0,12.2,3.469
2007/07/02,02:10:01,42,222,337,0.1,2.1,4.8,21.7,87.0,1003.7,0.00,0,0.0,0.0,0,0.0,25.4,0.0,12.1,3.469
2007/07/02,02:20:01,139,220,288,0.1,2.2,6.0,21.8,87.0,1003.7,0.00,0,0.0,0.0,0,0.0,25.4,0.0,12.0,3.470
2007/07/02,02:30:01,103,222,26,0.3,2.2,4.8,21.7,87.0,1003.7,0.00,0,0.0,0.0,0,0.0,25.3,0.0,11.9,3.470
2007/07/02,02:40:01,74,221,342,0.2,2.0,4.5,21.8,87.3,1003.6,0.00,0,0.0,0.0,0,0.0,25.3,0.0,12.0,3.470
2007/07/02,02:50:01,112,223,7,0.1,1.9,4.9,21.7,87.4,1003.5,0.00,0,0.0,0.0,0,0.0,25.3,0.0,12.0,3.470
2007/07/02,03:00:01,121,227,306,0.2,2.0,4.7,21.6,87.2,1003.6,0.00,0,0.0,0.0,0,0.0,25.3,0.0,12.0,3.470
2007/07/02,03:10:01,165,232,50,0.0,2.1,4.9,21.6,87.0,1003.5,0.00,0,0.0,0.0,0,0.0,25.4,0.0,12.1,3.470
2007/07/02,03:20:01,70,232,40,0.0,2.0,5.0,21.7,86.8,1003.5,0.00,0,0.0,0.0,0,0.0,25.4,0.0,12.0,3.469
2007/07/02,03:30:01,71,230,31,0.2,2.4,5.5,21.8,86.9,1003.3,0.00,0,0.0,0.0,0,0.0,25.4,0.0,12.1,3.469
2007/07/02,03:40:01,153,233,355,0.0,2.1,4.6,22.0,87.5,1003.4,0.00,0,0.0,0.0,0,0.0,25.6,0.0,12.1,3.470
2007/07/02,03:50:01,134,235,14,0.2,2.6,5.5,21.8,87.5,1003.4,0.00,0,0.0,0.0,0,0.0,25.6,0.0,12.0,3.470
2007/07/02,04:00:01,84,226,11,0.1,2.0,4.9,21.5,87.3,1003.4,0.00,0,0.0,0.0,0,0.0,25.4,0.0,12.1,3.474
2007/07/02,04:10:01,129,209,274,0.2,2.0,4.3,21.2,87.2,1003.3,0.00,0,0.0,0.0,0,0.0,25.3,0.0,12.0,3.469
2007/07/02,04:20:01,39,208,25,0.1,2.1,4.8,21.3,87.2,1003.2,0.00,0,0.0,0.0,0,0.0,25.3,0.0,12.0,3.470
2007/07/02,04:30:01,45,209,19,0.1,2.1,5.0,21.4,87.4,1003.3,0.00,0,0.0,0.0,0,0.0,25.3,0.0,11.9,3.470
2007/07/02,04:40:01,135,209,283,0.4,2.2,4.9,21.6,87.5,1003.3,0.00,0,0.0,0.0,0,0.0,25.3,0.0,12.0,3.470
2007/07/02,04:50:01,142,211,288,0.1,2.0,5.1,21.5,87.8,1003.2,0.00,0,0.0,0.0,0,0.0,25.3,0.0,12.0,3.470
2007/07/02,05:00:01,57,208,25,0.0,2.1,5.6,21.5,87.7,1003.3,0.00,0,0.0,0.0,0,0.0,25.3,0.0,11.9,3.470
2007/07/02,05:10:01,39,215,6,0.1,2.1,5.6,21.5,87.6,1003.3,0.00,0,0.0,0.0,0,0.0,25.4,0.0,11.9,3.470
2007/07/02,05:20:01,108,211,279,0.2,2.4,5.4,21.4,87.5,1003.3,0.00,0,0.0,0.0,0,0.0,25.4,0.0,12.0,3.469
2007/07/02,05:30:01,43,212,11,0.1,2.2,5.7,21.4,87.5,1003.2,0.00,0,0.0,0.0,0,0.0,25.4,0.0,12.0,3.469
2007/07/02,05:40:01,79,212,332,0.0,2.0,4.7,21.3,87.4,1003.3,0.00,0,0.0,0.0,0,0.0,25.3,0.0,12.0,3.469
2007/07/02,05:50:01,154,216,25,0.2,2.0,4.7,21.3,87.3,1003.3,0.00,0,0.0,0.0,0,0.0,25.6,0.0,12.0,3.470
2007/07/02,06:00:01,49,216,9,0.1,1.7,3.8,21.3,86.8,1003.3,0.00,0,0.0,0.0,0,0.0,26.1,0.0,12.1,3.467
2007/07/02,06:10:01,36,216,25,0.1,1.9,4.8,21.3,86.6,1003.3,0.00,0,0.0,0.0,0,0.0,26.6,0.0,12.0,3.469
2007/07/02,06:20:01,117,214,25,0.1,2.0,4.5,21.3,86.2,1003.4,0.00,0,0.0,0.0,0,0.0,26.9,0.0,12.0,3.469
2007/07/02,06:30:01,40,212,349,0.1,2.2,5.3,21.3,85.5,1003.3,0.00,0,0.0,0.0,0,0.0,27.3,0.0,12.0,3.469
2007/07/02,06:40:01,76,215,25,0.0,2.0,5.4,21.2,84.7,1003.4,0.00,0,0.0,0.0,0,0.0,27.8,0.0,12.0,3.470
2007/07/02,06:50:01,44,216,25,0.1,2.2,5.2,21.4,84.2,1003.4,0.00,0,0.0,0.0,0,0.0,28.1,0.0,12.0,3.469
2007/07/02,07:00:01,51,216,18,0.1,2.3,5.6,21.5,83.9,1003.4,0.00,0,0.0,0.0,0,0.0,28.3,0.0,12.0,3.469
2007/07/02,07:10:01,33,211,9,0.0,2.8,6.5,21.7,83.6,1003.3,0.00,0,0.0,0.0,0,0.0,28.6,0.0,11.9,3.469
2007/07/02,07:20:01,139,209,294,0.3,2.7,6.6,21.8,83.0,1003.4,0.00,0,0.0,0.0,0,0.0,29.0,0.0,12.1,3.469
2007/07/02,07:30:01,77,222,25,0.1,2.5,7.1,21.9,82.5,1003.7,0.00,0,0.0,0.0,0,0.0,29.3,0.0,12.1,3.469
2007/07/02,07:40:01,50,222,32,0.1,2.4,6.2,22.1,81.6,1003.8,0.00,0,0.0,0.0,0,0.0,29.8,0.0,12.1,3.469
2007/07/02,07:50:01,52,227,42,0.1,2.6,11.2,22.6,81.8,1003.9,0.00,10,0.0,0.0,0,0.0,30.1,0.0,12.0,3.468
2007/07/02,08:00:01,139,227,286,0.2,3.1,7.4,22.6,81.8,1004.1,0.00,0,0.0,0.0,0,0.0,30.1,0.0,12.1,3.468
2007/07/02,08:10:01,159,232,51,0.1,3.2,7.9,22.6,81.6,1004.2,0.00,0,0.0,0.0,0,0.0,30.1,0.0,12.0,3.469
2007/07/02,08:20:01,118,232,40,0.1,3.5,8.0,22.7,81.8,1004.3,0.00,0,0.0,0.0,0,0.0,30.1,0.0,12.0,3.468
2007/07/02,08:30:01,67,232,0,0.1,3.1,7.5,22.9,81.1,1004.3,0.00,0,0.0,0.0,0,0.0,30.6,0.0,12.0,3.468
2007/07/02,08:40:01,163,234,2,0.2,3.2,6.4,23.1,81.2,1004.4,0.00,0,0.0,0.0,0,0.0,30.6,0.0,12.0,3.468
2007/07/02,08:50:01,140,231,310,0.1,3.2,6.9,23.2,80.3,1004.3,0.00,0,0.0,0.0,0,0.0,31.1,0.0,12.0,3.468
2007/07/02,09:00:01,142,234,39,0.2,3.5,7.4,23.3,80.9,1004.4,0.00,0,0.0,0.0,0,0.0,30.8,0.0,12.0,3.469
2007/07/02,09:10:01,171,238,312,0.2,3.0,6.6,23.7,79.4,1004.5,0.00,0,0.0,0.0,0,0.0,31.6,0.0,12.0,3.468
2007/07/02,09:20:01,174,240,311,0.4,3.5,7.4,23.6,80.7,1004.6,0.00,0,0.0,0.0,0,0.0,31.5,0.0,12.0,3.468
2007/07/02,09:30:01,92,243,30,0.0,2.7,6.5,23.9,80.7,1004.6,0.00,0,0.0,0.0,0,0.0,32.3,0.0,12.0,3.468
2007/07/02,09:40:01,114,260,42,0.0,1.7,5.2,24.6,77.1,1004.7,0.00,0,0.0,0.0,0,0.0,33.5,0.0,12.1,3.467
2007/07/02,09:50:01,81,246,63,0.1,2.2,6.1,24.4,77.8,1004.5,0.00,0,0.0,0.0,0,0.0,34.0,0.0,11.9,3.467
2007/07/02,10:00:01,99,258,72,0.0,2.2,7.1,24.4,77.3,1004.4,0.00,0,0.0,0.0,0,0.0,33.8,0.0,12.0,3.465
2007/07/02,10:10:01,71,244,65,0.1,2.6,7.1,24.4,76.8,1004.4,0.00,0,0.0,0.0,0,0.0,33.5,0.0,12.1,3.465
2007/07/02,10:20:01,77,247,63,0.1,2.5,6.7,24.6,77.8,1004.4,0.00,0,0.0,0.0,0,0.0,33.7,0.0,12.1,3.467
2007/07/02,10:30:01,92,260,78,0.0,2.2,11.3,24.8,76.1,1004.4,0.00,10,0.0,0.0,0,0.0,33.8,0.0,12.0,3.467
2007/07/02,10:40:01,82,255,76,0.0,2.3,6.7,25.0,75.8,1004.4,0.00,0,0.0,0.0,0,0.0,33.8,0.0,11.9,3.467
2007/07/02,10:50:01,77,255,68,0.0,2.3,7.3,24.8,77.5,1004.5,0.00,0,0.0,0.0,0,0.0,33.8,0.0,11.9,3.467
2007/07/02,11:00:01,101,268,85,0.1,2.9,7.5,24.5,78.6,1004.5,0.00,0,0.0,0.0,0,0.0,33.3,0.0,12.1,3.467
2007/07/02,11:10:01,92,262,81,0.0,2.4,7.7,25.1,76.9,1004.6,0.00,0,0.0,0.0,0,0.0,33.7,0.0,12.0,3.467
2007/07/02,11:20:01,80,258,73,0.1,2.4,7.8,25.2,75.5,1004.6,0.00,0,0.0,0.0,0,0.0,34.2,0.0,12.0,3.465
2007/07/02,11:30:01,82,258,71,0.1,2.6,8.0,25.6,75.1,1004.4,0.00,0,0.0,0.0,0,0.0,34.0,0.0,12.0,3.468
2007/07/02,11:40:01,73,245,65,0.0,2.4,7.5,25.7,74.4,1004.3,0.00,0,0.0,0.0,0,0.0,34.3,0.0,12.0,3.467
2007/07/02,11:50:01,71,238,41,0.1,3.1,6.9,25.4,76.0,1004.2,0.00,0,0.0,0.0,0,0.0,33.8,0.0,12.0,3.468
2007/07/02,12:00:01,65,242,50,0.1,3.0,7.3,25.8,74.9,1004.2,0.00,0,0.0,0.0,0,0.0,33.7,0.0,12.1,3.467
2007/07/02,12:10:01,109,257,73,0.1,2.1,7.4,26.2,74.6,1004.1,0.00,0,0.0,0.0,0,0.0,34.8,0.0,12.0,3.467
2007/07/02,12:20:01,80,258,48,0.0,2.4,6.5,26.1,75.2,1004.0,0.00,0,0.0,0.0,0,0.0,34.5,0.0,12.0,3.467
2007/07/02,12:30:01,69,249,63,0.0,2.0,6.4,26.4,74.9,1003.9,0.00,0,0.0,0.0,0,0.0,34.7,0.0,12.0,3.467
2007/07/02,12:40:01,85,266,81,0.0,2.6,8.3,25.5,76.1,1003.8,0.00,0,0.0,0.0,0,0.0,34.5,0.0,11.9,3.465
2007/07/02,12:50:01,163,267,36,0.3,4.4,9.4,25.0,77.8,1003.7,0.00,0,0.0,0.0,0,0.0,32.6,0.0,12.1,3.467
2007/07/02,13:00:01,92,265,79,0.2,2.8,7.9,26.0,74.3,1003.7,0.00,0,0.0,0.0,0,0.0,33.5,0.0,12.0,3.468
2007/07/02,13:10:01,177,267,28,0.2,4.2,9.4,25.2,76.8,1003.7,0.00,0,0.0,0.0,0,0.0,32.8,0.0,12.1,3.467
2007/07/02,13:20:01,85,265,83,0.2,4.6,9.7,25.5,76.5,1003.6,0.00,0,0.0,0.0,0,0.0,32.3,0.0,12.0,3.467
2007/07/02,13:30:01,123,267,25,0.1,4.1,9.6,25.8,75.3,1003.5,0.00,0,0.0,0.0,0,0.0,32.5,0.0,12.0,3.468
2007/07/02,13:40:01,96,266,74,0.2,3.5,9.6,25.9,75.6,1003.6,0.00,0,0.0,0.0,0,0.0,33.0,0.0,12.1,3.467
2007/07/02,13:50:01,115,269,37,0.2,3.6,10.1,25.8,75.8,1003.6,0.00,0,0.0,0.0,0,0.0,33.0,0.0,12.1,3.468
2007/07/02,14:00:01,135,270,83,0.2,4.1,8.6,25.8,75.1,1003.5,0.00,0,0.0,0.0,0,0.0,32.8,0.0,12.1,3.467
2007/07/02,14:10:01,90,261,78,0.0,2.6,7.8,27.1,72.7,1003.3,0.00,0,0.0,0.0,0,0.0,33.7,0.0,12.1,3.467
2007/07/02,14:20:01,79,255,62,0.0,2.9,8.6,26.4,73.4,1003.3,0.00,0,0.0,0.0,0,0.0,34.0,0.0,12.0,3.465
2007/07/02,14:30:01,120,267,36,0.1,4.0,8.5,25.9,74.7,1003.3,0.00,0,0.0,0.0,0,0.0,33.0,0.0,12.0,3.468
2007/07/02,14:40:01,114,264,9,0.1,4.5,9.7,25.8,75.3,1003.2,0.00,0,0.0,0.0,0,0.0,32.1,0.0,12.0,3.467
2007/07/02,14:50:01,142,268,80,0.1,4.4,10.5,25.9,75.8,1003.1,0.00,0,0.0,0.0,0,0.0,32.1,0.0,11.9,3.467
2007/07/02,15:00:01,102,265,64,0.1,4.1,9.0,26.5,74.9,1003.1,0.00,0,0.0,0.0,0,0.0,32.3,0.0,12.0,3.468